Time,TemperatureF,DewpointF,PressureIn,WindDirection,WindDirectionDegrees,WindSpeedMPH,WindSpeedGustMPH,Humidity,HourlyPrecipIn,Conditions,Clouds,dailyrainin,SolarRadiationWatts/m^2,SoftwareType,DateUTC
2013-03-17 00:00:00,11.5,3.9,30.26,WNW,291,0.0,0.0,71,0.00,RA,,0.00,0.0,WeatherDisplay:10.37,2013-03-17 05:00:00,
2013-03-17 00:05:00,11.3,3.7,30.27,NNW,333,0.0,0.0,71,0.00,RA,,0.00,0.0,WeatherDisplay:10.37,2013-03-17 05:05:00,
2013-03-17 00:10:00,11.2,3.6,30.27,NNW,333,0.0,0.0,71,0.00,CLR,,0.00,0.0,WeatherDisplay:10.37,2013-03-17 05:10:00,
2013-03-17 00:15:00,11.1,3.8,30.27,NNW,333,0.0,0.0,72,0.00,CLR,,0.00,0.0,WeatherDisplay:10.37,2013-03-17 05:15:00,
2013-03-17 00:20:00,10.7,3.1,30.28,WNW,302,0.0,0.0,71,0.00,CLR,,0.00,0.0,WeatherDisplay:10.37,2013-03-17 05:20:00,
2013-03-17 00:25:00,10.4,3.2,30.28,NNW,341,1.0,0.0,72,0.00,CLR,,0.00,0.0,WeatherDisplay:10.37,2013-03-17 05:25:00,
2013-03-17 00:30:00,10.4,2.9,30.28,NNW,341,0.0,0.0,71,0.00,CLR,,0.00,0.0,WeatherDisplay:10.37,2013-03-17 05:30:00,
2013-03-17 00:35:00,10.5,3.3,30.29,NNW,341,0.0,0.0,72,0.00,CLR,,0.00,0.0,WeatherDisplay:10.37,2013-03-17 05:35:00,
2013-03-17 00:40:00,10.4,3.2,30.29,NNW,341,1.1,1.1,72,0.00,CLR,,0.00,0.0,WeatherDisplay:10.37,2013-03-17 05:40:00,
2013-03-17 00:45:00,10.4,2.9,30.29,NNW,340,0.0,0.0,71,0.00,CLR,,0.00,0.0,WeatherDisplay:10.37,2013-03-17 05:45:00,
2013-03-17 00:50:00,10.4,2.9,30.29,NNW,347,0.0,0.0,71,0.00,CLR,,0.00,0.0,WeatherDisplay:10.37,2013-03-17 05:50:00,
2013-03-17 00:55:00,10.4,2.5,30.29,NNW,346,0.0,0.2,70,0.00,CLR,,0.00,0.0,WeatherDisplay:10.37,2013-03-17 05:55:00,
2013-03-17 01:00:00,10.4,2.5,30.29,ENE,71,0.0,0.0,70,0.00,CLR,,0.00,0.0,WeatherDisplay:10.37,2013-03-17 06:00:00,
2013-03-17 01:05:00,10.3,2.1,30.30,NNE,26,0.0,0.0,69,0.00,CLR,,0.00,0.0,WeatherDisplay:10.37,2013-03-17 06:05:00,
2013-03-17 01:10:00,10.3,2.1,30.30,NNE,29,0.0,0.0,69,0.00,CLR,,0.00,0.0,WeatherDisplay:10.37,2013-03-17 06:10:00,
2013-03-17 01:15:00,10.1,1.6,30.30,NNE,29,0.0,0.0,68,0.00,CLR,,0.00,0.0,WeatherDisplay:10.37,2013-03-17 06:15:00,
2013-03-17 01:20:00,9.9,1.4,30.30,NNE,29,0.0,0.0,68,0.00,CLR,,0.00,0.0,WeatherDisplay:10.37,2013-03-17 06:20:00,
2013-03-17 01:25:00,9.8,1.7,30.30,NNE,28,1.1,1.1,69,0.00,CLR,,0.00,0.0,WeatherDisplay:10.37,2013-03-17 06:25:00,
2013-03-17 01:30:00,9.6,1.2,30.30,NNE,25,3.5,3.5,68,0.00,CLR,,0.00,0.0,WeatherDisplay:10.37,2013-03-17 06:30:00,
2013-03-17 01:35:00,9.5,1.1,30.30,East,80,0.0,0.3,68,0.00,CLR,,0.00,0.0,WeatherDisplay:10.37,2013-03-17 06:35:00,
2013-03-17 01:40:00,9.3,0.9,30.31,NE,36,1.1,1.1,68,0.00,CLR,,0.00,0.0,WeatherDisplay:10.37,2013-03-17 06:40:00,
2013-03-17 01:45:00,9.2,0.8,30.31,NE,36,0.0,0.0,68,0.00,CLR,,0.00,0.0,WeatherDisplay:10.37,2013-03-17 06:45:00,
2013-03-17 01:50:00,8.9,0.5,30.31,NE,36,0.0,0.0,68,0.00,CLR,,0.00,0.0,WeatherDisplay:10.37,2013-03-17 06:50:00,
2013-03-17 01:55:00,8.6,0.5,30.31,NNE,30,0.0,0.0,69,0.00,CLR,,0.00,0.0,WeatherDisplay:10.37,2013-03-17 06:55:00,
2013-03-17 02:00:00,8.3,0.2,30.31,NNE,30,0.0,0.0,69,0.00,CLR,,0.00,0.0,WeatherDisplay:10.37,2013-03-17 07:00:00,
2013-03-17 02:05:00,7.8,0.0,30.31,NNE,30,0.0,0.0,70,0.00,CLR,,0.00,0.0,WeatherDisplay:10.37,2013-03-17 07:05:00,
2013-03-17 02:10:00,7.1,-0.3,30.31,NNE,30,0.0,0.0,71,0.00,CLR,,0.00,0.0,WeatherDisplay:10.37,2013-03-17 07:10:00,
2013-03-17 02:15:00,6.3,-0.8,30.32,NNE,30,0.0,0.0,72,0.00,CLR,,0.00,0.0,WeatherDisplay:10.37,2013-03-17 07:15:00,
2013-03-17 02:20:00,5.7,-0.8,30.32,NNE,30,0.0,0.0,74,0.00,CLR,,0.00,0.0,WeatherDisplay:10.37,2013-03-17 07:20:00,
2013-03-17 02:25:00,5.1,-1.4,30.32,NNE,30,0.0,0.0,74,0.00,CLR,,0.00,0.0,WeatherDisplay:10.37,2013-03-17 07:25:00,
2013-03-17 02:30:00,4.5,-2.0,30.32,NNE,30,0.0,0.0,74,0.00,CLR,,0.00,0.0,WeatherDisplay:10.37,2013-03-17 07:30:00,
2013-03-17 02:35:00,4.0,-2.2,30.33,NNE,30,0.0,0.0,75,0.00,CLR,,0.00,0.0,WeatherDisplay:10.37,2013-03-17 07:35:00,
2013-03-17 02:40:00,3.4,-2.5,30.33,NNE,30,0.0,0.0,76,0.00,CLR,,0.00,0.0,WeatherDisplay:10.37,2013-03-17 07:40:00,
2013-03-17 02:45:00,2.9,-3.0,30.33,NNE,30,0.0,0.0,76,0.00,CLR,,0.00,0.0,WeatherDisplay:10.37,2013-03-17 07:45:00,
2013-03-17 02:50:00,2.6,-3.0,30.33,NNE,30,0.0,0.0,77,0.00,CLR,,0.00,0.0,WeatherDisplay:10.37,2013-03-17 07:50:00,
2013-03-17 02:55:00,2.2,-3.4,30.33,NNE,30,0.0,0.0,77,0.00,CLR,,0.00,0.0,WeatherDisplay:10.37,2013-03-17 07:55:00,
2013-03-17 03:00:00,1.7,-3.6,30.33,NNE,30,0.0,0.0,78,0.00,CLR,,0.00,0.0,WeatherDisplay:10.37,2013-03-17 08:00:00,
2013-03-17 03:05:00,1.0,-4.3,30.33,NNE,30,0.0,0.0,78,0.00,CLR,,0.00,0.0,WeatherDisplay:10.37,2013-03-17 08:05:00,
2013-03-17 03:10:00,0.2,-5.0,30.33,NNE,30,0.0,0.0,78,0.00,CLR,,0.00,0.0,WeatherDisplay:10.37,2013-03-17 08:10:00,
2013-03-17 03:15:00,-0.5,-6.0,30.33,NNE,30,0.0,0.0,77,0.00,CLR,,0.00,0.0,WeatherDisplay:10.37,2013-03-17 08:15:00,
2013-03-17 03:21:00,-0.9,-6.1,30.33,NNE,30,0.0,0.0,78,0.00,CLR,,0.00,0.0,WeatherDisplay:10.37,2013-03-17 08:21:00,
2013-03-17 03:26:00,-1.0,-5.9,30.33,NNE,30,0.0,0.0,79,0.00,CLR,,0.00,0.0,WeatherDisplay:10.37,2013-03-17 08:26:00,
2013-03-17 03:31:00,-1.2,-6.1,30.32,NNE,30,0.0,0.0,79,0.00,CLR,,0.00,0.0,WeatherDisplay:10.37,2013-03-17 08:31:00,
2013-03-17 03:36:00,-1.6,-6.5,30.33,NNE,30,0.0,0.0,79,0.00,CLR,,0.00,0.0,WeatherDisplay:10.37,2013-03-17 08:36:00,
2013-03-17 03:41:00,-2.1,-7.3,30.33,NNE,30,0.0,0.0,78,0.00,CLR,,0.00,0.0,WeatherDisplay:10.37,2013-03-17 08:41:00,
2013-03-17 03:46:00,-2.7,-7.9,30.32,NNE,30,0.0,0.0,78,0.00,CLR,,0.00,0.0,WeatherDisplay:10.37,2013-03-17 08:46:00,
2013-03-17 03:51:00,-3.1,-8.0,30.33,NNE,30,0.0,0.0,79,0.00,CLR,,0.00,0.0,WeatherDisplay:10.37,2013-03-17 08:51:00,
2013-03-17 03:56:00,-3.4,-8.3,30.32,NNE,30,0.0,0.0,79,0.00,CLR,,0.00,0.0,WeatherDisplay:10.37,2013-03-17 08:56:00,
2013-03-17 04:01:00,-3.8,-8.7,30.32,NNE,30,0.0,0.0,79,0.00,CLR,,0.00,0.0,WeatherDisplay:10.37,2013-03-17 09:01:00,
2013-03-17 04:06:00,-4.3,-9.4,30.32,NNE,30,0.0,0.0,78,0.00,CLR,,0.00,0.0,WeatherDisplay:10.37,2013-03-17 09:06:00,
2013-03-17 04:11:00,-4.8,-9.9,30.32,NNE,30,0.0,0.0,78,0.00,CLR,,0.00,0.0,WeatherDisplay:10.37,2013-03-17 09:11:00,
2013-03-17 04:16:00,-5.1,-9.9,30.33,NNE,30,0.0,0.0,79,0.00,CLR,,0.00,0.0,WeatherDisplay:10.37,2013-03-17 09:16:00,
2013-03-17 04:21:00,-5.3,-9.9,30.33,NNE,30,0.0,0.0,80,0.00,CLR,,0.00,0.0,WeatherDisplay:10.37,2013-03-17 09:21:00,
2013-03-17 04:27:00,-5.7,-10.5,30.33,NNE,30,0.0,0.0,79,0.00,CLR,,0.00,0.0,WeatherDisplay:10.37,2013-03-17 09:27:00,
2013-03-17 04:32:00,-6.0,-10.8,30.33,NNE,30,0.0,0.0,79,0.00,CLR,,0.00,0.0,WeatherDisplay:10.37,2013-03-17 09:32:00,
2013-03-17 04:38:00,-6.4,-11.2,30.33,NNE,30,0.0,0.0,79,0.00,CLR,,0.00,0.0,WeatherDisplay:10.37,2013-03-17 09:38:00,
2013-03-17 04:43:00,-6.7,-11.5,30.33,NNE,30,0.0,0.0,79,0.00,CLR,,0.00,0.0,WeatherDisplay:10.37,2013-03-17 09:43:00,
2013-03-17 04:48:00,-7.0,-11.8,30.33,NNE,30,0.0,0.0,79,0.00,CLR,,0.00,0.0,WeatherDisplay:10.37,2013-03-17 09:48:00,
2013-03-17 04:53:00,-7.3,-12.1,30.33,NNE,30,0.0,0.0,79,0.00,CLR,,0.00,0.0,WeatherDisplay:10.37,2013-03-17 09:53:00,
2013-03-17 04:58:00,-7.5,-12.3,30.33,NNE,30,0.0,0.0,79,0.00,CLR,,0.00,0.0,WeatherDisplay:10.37,2013-03-17 09:58:00,
2013-03-17 05:03:00,-7.6,-12.4,30.33,NNE,30,0.0,0.0,79,0.00,CLR,,0.00,0.0,WeatherDisplay:10.37,2013-03-17 10:03:00,
2013-03-17 05:08:00,-7.9,-12.7,30.33,NNE,30,0.0,0.0,79,0.00,CLR,,0.00,0.0,WeatherDisplay:10.37,2013-03-17 10:08:00,
2013-03-17 05:13:00,-8.3,-13.1,30.33,NNE,30,0.0,0.0,79,0.00,CLR,,0.00,0.0,WeatherDisplay:10.37,2013-03-17 10:13:00,
2013-03-17 05:18:00,-8.7,-13.7,30.33,NNE,30,0.0,0.0,78,0.00,CLR,,0.00,0.0,WeatherDisplay:10.37,2013-03-17 10:18:00,
2013-03-17 05:23:00,-9.0,-13.8,30.33,NNE,30,0.0,0.0,79,0.00,CLR,,0.00,0.0,WeatherDisplay:10.37,2013-03-17 10:23:00,
2013-03-17 05:28:00,-9.2,-13.9,30.33,NNE,30,0.0,0.0,79,0.00,CLR,,0.00,0.0,WeatherDisplay:10.37,2013-03-17 10:28:00,
2013-03-17 05:33:00,-9.5,-14.5,30.33,NNE,30,0.0,0.0,78,0.00,CLR,,0.00,0.0,WeatherDisplay:10.37,2013-03-17 10:33:00,
2013-03-17 05:38:00,-9.8,-14.5,30.33,NNE,30,0.0,0.0,79,0.00,CLR,,0.00,0.0,WeatherDisplay:10.37,2013-03-17 10:38:00,
2013-03-17 05:43:00,-9.9,-14.9,30.33,NNE,30,0.0,0.0,78,0.00,CLR,,0.00,0.0,WeatherDisplay:10.37,2013-03-17 10:43:00,
2013-03-17 05:48:00,-10.1,-14.8,30.33,NNE,30,0.0,0.0,79,0.00,CLR,,0.00,0.0,WeatherDisplay:10.37,2013-03-17 10:48:00,
2013-03-17 05:53:00,-10.3,-15.3,30.33,NNE,30,0.0,0.0,78,0.00,CLR,,0.00,0.0,WeatherDisplay:10.37,2013-03-17 10:53:00,
2013-03-17 05:58:00,-10.6,-15.6,30.34,NNE,30,0.0,0.0,78,0.00,CLR,,0.00,0.0,WeatherDisplay:10.37,2013-03-17 10:58:00,
2013-03-17 06:03:00,-10.8,-15.8,30.34,NNE,30,0.0,0.0,78,0.00,CLR,,0.00,0.0,WeatherDisplay:10.37,2013-03-17 11:03:00,
2013-03-17 06:08:00,-10.9,-15.6,30.34,NNE,30,0.0,0.0,79,0.00,CLR,,0.00,0.0,WeatherDisplay:10.37,2013-03-17 11:08:00,
2013-03-17 06:13:00,-10.9,-15.6,30.34,NNE,30,0.0,0.0,79,0.00,CLR,,0.00,0.0,WeatherDisplay:10.37,2013-03-17 11:13:00,
2013-03-17 06:18:00,-11.0,-15.7,30.34,NNE,30,0.0,0.0,79,0.00,CLR,,0.00,0.0,WeatherDisplay:10.37,2013-03-17 11:18:00,
2013-03-17 06:23:00,-11.2,-16.1,30.34,NNE,30,0.0,0.0,78,0.00,CLR,,0.00,0.0,WeatherDisplay:10.37,2013-03-17 11:23:00,
2013-03-17 06:28:00,-11.6,-16.5,30.34,NNE,30,0.0,0.0,78,0.00,CLR,,0.00,0.0,WeatherDisplay:10.37,2013-03-17 11:28:00,
2013-03-17 06:33:00,-11.7,-16.6,30.34,NNE,30,0.0,0.0,78,0.00,CLR,,0.00,0.0,WeatherDisplay:10.37,2013-03-17 11:33:00,
2013-03-17 06:38:00,-11.9,-16.8,30.34,NNE,30,0.0,0.0,78,0.00,CLR,,0.00,0.0,WeatherDisplay:10.37,2013-03-17 11:38:00,
2013-03-17 06:43:00,-12.1,-17.0,30.34,NNE,30,0.0,0.0,78,0.00,CLR,,0.00,0.0,WeatherDisplay:10.37,2013-03-17 11:43:00,
2013-03-17 06:48:00,-12.3,-17.2,30.34,NNE,30,0.0,0.0,78,0.00,CLR,,0.00,0.0,WeatherDisplay:10.37,2013-03-17 11:48:00,
2013-03-17 06:53:00,-12.4,-17.3,30.34,NNE,30,0.0,0.0,78,0.00,CLR,,0.00,0.0,WeatherDisplay:10.37,2013-03-17 11:53:00,
2013-03-17 06:58:00,-12.4,-17.1,30.34,NNE,30,0.0,0.0,79,0.00,CLR,,0.00,0.0,WeatherDisplay:10.37,2013-03-17 11:58:00,
2013-03-17 07:03:00,-12.5,-17.4,30.34,NNE,30,0.0,0.0,78,0.00,CLR,,0.00,0.0,WeatherDisplay:10.37,2013-03-17 12:03:00,
2013-03-17 07:08:00,-12.6,-17.5,30.34,NNE,30,0.0,0.0,78,0.00,CLR,,0.00,0.0,WeatherDisplay:10.37,2013-03-17 12:08:00,
2013-03-17 07:13:00,-12.8,-17.7,30.35,NNE,30,0.0,0.0,78,0.00,CLR,,0.00,0.0,WeatherDisplay:10.37,2013-03-17 12:13:00,
2013-03-17 07:18:00,-13.0,-17.9,30.35,NNE,30,0.0,0.0,78,0.00,CLR,,0.00,0.0,WeatherDisplay:10.37,2013-03-17 12:18:00,
2013-03-17 07:23:00,-13.2,-18.1,30.35,NNE,30,0.0,0.0,78,0.00,CLR,,0.00,5.0,WeatherDisplay:10.37,2013-03-17 12:23:00,
2013-03-17 07:28:00,-13.2,-18.1,30.35,NNE,30,0.0,0.0,78,0.00,CLR,,0.00,7.0,WeatherDisplay:10.37,2013-03-17 12:28:00,
2013-03-17 07:33:00,-13.1,-18.0,30.34,NNE,30,0.0,0.0,78,0.00,CLR,,0.00,9.0,WeatherDisplay:10.37,2013-03-17 12:33:00,
2013-03-17 07:38:00,-12.9,-17.6,30.34,NNE,30,0.0,0.0,79,0.00,CLR,,0.00,11.0,WeatherDisplay:10.37,2013-03-17 12:38:00,
2013-03-17 07:43:00,-12.7,-17.4,30.35,NNE,30,0.0,0.0,79,0.00,CLR,,0.00,12.0,WeatherDisplay:10.37,2013-03-17 12:43:00,
2013-03-17 07:48:00,-12.8,-17.7,30.35,NNE,30,0.0,0.0,78,0.00,CLR,,0.00,14.0,WeatherDisplay:10.37,2013-03-17 12:48:00,
2013-03-17 07:53:00,-12.9,-17.8,30.35,NNE,30,0.0,0.0,78,0.00,CLR,,0.00,16.0,WeatherDisplay:10.37,2013-03-17 12:53:00,
2013-03-17 07:58:00,-12.7,-17.6,30.35,NNE,30,0.0,0.0,78,0.00,CLR,,0.00,16.0,WeatherDisplay:10.37,2013-03-17 12:58:00,
2013-03-17 08:03:00,-12.5,-17.2,30.35,NNE,30,0.0,0.0,79,0.00,CLR,,0.00,18.0,WeatherDisplay:10.37,2013-03-17 13:03:00,
2013-03-17 08:08:00,-12.1,-16.8,30.35,NNE,30,0.0,0.0,79,0.00,CLR,,0.00,19.0,WeatherDisplay:10.37,2013-03-17 13:08:00,
2013-03-17 08:13:00,-11.8,-16.5,30.35,NNE,30,0.0,0.0,79,0.00,CLR,,0.00,21.0,WeatherDisplay:10.37,2013-03-17 13:13:00,
2013-03-17 08:18:00,-11.5,-16.2,30.34,NNE,30,0.0,0.0,79,0.00,CLR,,0.00,21.0,WeatherDisplay:10.37,2013-03-17 13:18:00,
2013-03-17 08:23:00,-10.9,-15.4,30.35,NNE,30,0.0,0.0,80,0.00,CLR,,0.00,30.0,WeatherDisplay:10.37,2013-03-17 13:23:00,
2013-03-17 08:28:00,-10.0,-14.2,30.35,NNE,30,0.0,0.0,81,0.00,CLR,,0.00,28.0,WeatherDisplay:10.37,2013-03-17 13:28:00,
2013-03-17 08:33:00,-9.0,-13.3,30.35,NNE,30,0.0,0.0,81,0.00,CLR,,0.00,32.0,WeatherDisplay:10.37,2013-03-17 13:33:00,
2013-03-17 08:38:00,-8.2,-12.5,30.35,NNE,30,0.0,0.0,81,0.00,CLR,,0.00,62.0,WeatherDisplay:10.37,2013-03-17 13:38:00,
2013-03-17 08:43:00,-7.2,-11.5,30.35,NNE,30,0.0,0.0,81,0.00,CLR,,0.00,135.0,WeatherDisplay:10.37,2013-03-17 13:43:00,
2013-03-17 08:48:00,-6.1,-10.2,30.35,NNE,30,0.0,0.0,82,0.00,CLR,,0.00,40.0,WeatherDisplay:10.37,2013-03-17 13:48:00,
2013-03-17 08:53:00,-4.9,-9.0,30.35,NNE,30,0.0,0.0,82,0.00,CLR,,0.00,46.0,WeatherDisplay:10.37,2013-03-17 13:53:00,
2013-03-17 08:58:00,-3.5,-7.4,30.35,NNE,30,0.0,0.0,83,0.00,CLR,,0.00,44.0,WeatherDisplay:10.37,2013-03-17 13:58:00,
2013-03-17 09:03:00,-2.3,-5.9,30.35,NNE,30,0.0,0.0,84,0.00,CLR,,0.00,32.0,WeatherDisplay:10.37,2013-03-17 14:03:00,
2013-03-17 09:08:00,-1.1,-4.8,30.35,NNE,30,0.0,0.0,84,0.00,CLR,,0.00,63.0,WeatherDisplay:10.37,2013-03-17 14:08:00,
2013-03-17 09:13:00,0.5,-2.9,30.35,NNE,30,0.0,0.0,85,0.00,CLR,,0.00,105.0,WeatherDisplay:10.37,2013-03-17 14:13:00,
2013-03-17 09:18:00,1.8,-1.7,30.35,NNE,30,1.1,1.1,85,0.00,CLR,,0.00,151.0,WeatherDisplay:10.37,2013-03-17 14:18:00,
2013-03-17 09:23:00,3.7,-0.1,30.35,SE,134,1.1,1.1,84,0.00,CLR,,0.00,56.0,WeatherDisplay:10.37,2013-03-17 14:23:00,
2013-03-17 09:29:00,5.3,1.3,30.35,SSE,159,1.1,1.1,83,0.00,CLR,,0.00,44.0,WeatherDisplay:10.37,2013-03-17 14:29:00,
2013-03-17 09:34:00,6.6,1.7,30.34,South,177,0.0,0.0,80,0.00,CLR,,0.00,33.0,WeatherDisplay:10.37,2013-03-17 14:34:00,
2013-03-17 09:39:00,7.5,2.3,30.34,SSE,161,1.1,1.1,79,0.00,CLR,,0.00,44.0,WeatherDisplay:10.37,2013-03-17 14:39:00,
2013-03-17 09:44:00,8.7,3.2,30.34,SSE,163,3.5,3.5,78,0.00,CLR,,0.00,40.0,WeatherDisplay:10.37,2013-03-17 14:44:00,
2013-03-17 09:49:00,10.0,3.7,30.34,ESE,102,2.3,2.3,75,0.00,CLR,,0.00,37.0,WeatherDisplay:10.37,2013-03-17 14:49:00,
2013-03-17 09:54:00,11.1,4.1,30.33,SSE,158,11.5,11.5,73,0.00,CLR,,0.00,37.0,WeatherDisplay:10.37,2013-03-17 14:54:00,
2013-03-17 09:59:00,11.7,3.8,30.33,East,80,3.5,3.5,70,0.00,CLR,,0.00,139.0,WeatherDisplay:10.37,2013-03-17 14:59:00,
2013-03-17 10:04:00,12.2,3.6,30.33,SSE,147,1.1,1.1,68,0.00,CLR,,0.00,47.0,WeatherDisplay:10.37,2013-03-17 15:04:00,
2013-03-17 10:09:00,12.5,4.3,30.33,SE,146,1.1,1.1,69,0.00,CLR,,0.00,42.0,WeatherDisplay:10.37,2013-03-17 15:09:00,
2013-03-17 10:14:00,13.0,4.1,30.33,SSE,157,3.5,3.5,67,0.00,CLR,,0.00,39.0,WeatherDisplay:10.37,2013-03-17 15:14:00,
2013-03-17 10:19:00,13.2,3.6,30.34,SE,144,2.3,2.3,65,0.00,CLR,,0.00,39.0,WeatherDisplay:10.37,2013-03-17 15:19:00,
2013-03-17 10:24:00,13.5,3.6,30.34,South,173,5.0,5.0,64,0.00,CLR,,0.00,40.0,WeatherDisplay:10.37,2013-03-17 15:24:00,
2013-03-17 10:29:00,13.5,2.9,30.34,South,182,8.1,8.1,62,0.00,CLR,,0.00,46.0,WeatherDisplay:10.37,2013-03-17 15:29:00,
2013-03-17 10:34:00,13.5,2.9,30.34,SE,143,3.5,3.5,62,0.00,CLR,,0.00,70.0,WeatherDisplay:10.37,2013-03-17 15:34:00,
2013-03-17 10:39:00,13.7,3.1,30.34,SE,140,9.2,9.2,62,0.00,CLR,,0.00,51.0,WeatherDisplay:10.37,2013-03-17 15:39:00,
2013-03-17 10:44:00,13.9,3.6,30.34,ESE,113,5.0,5.0,63,0.00,CLR,,0.00,47.0,WeatherDisplay:10.37,2013-03-17 15:44:00,
2013-03-17 10:49:00,14.0,3.0,30.33,East,100,5.8,5.8,61,0.00,CLR,,0.00,49.0,WeatherDisplay:10.37,2013-03-17 15:49:00,
2013-03-17 10:54:00,14.0,2.7,30.34,ESE,117,4.0,4.0,60,0.00,CLR,,0.00,51.0,WeatherDisplay:10.37,2013-03-17 15:54:00,
2013-03-17 10:59:00,14.0,2.7,30.34,East,90,6.9,6.9,60,0.00,CLR,,0.00,53.0,WeatherDisplay:10.37,2013-03-17 15:59:00,
2013-03-17 11:04:00,14.0,2.7,30.34,SE,128,3.5,3.5,60,0.00,CLR,,0.00,53.0,WeatherDisplay:10.37,2013-03-17 16:04:00,
2013-03-17 11:09:00,14.4,3.7,30.33,ESE,115,4.0,4.0,62,0.00,CLR,,0.00,54.0,WeatherDisplay:10.37,2013-03-17 16:09:00,
2013-03-17 11:14:00,14.6,3.6,30.33,ESE,120,5.8,5.8,61,0.00,CLR,,0.00,58.0,WeatherDisplay:10.37,2013-03-17 16:14:00,
2013-03-17 11:19:00,15.1,3.3,30.33,East,84,5.8,5.8,59,0.00,CLR,,0.00,76.0,WeatherDisplay:10.37,2013-03-17 16:19:00,
2013-03-17 11:24:00,15.4,4.0,30.33,ENE,66,3.5,3.5,60,0.00,CLR,,0.00,67.0,WeatherDisplay:10.37,2013-03-17 16:24:00,
2013-03-17 11:29:00,15.6,3.4,30.33,SE,124,5.0,5.0,58,0.00,CLR,,0.00,67.0,WeatherDisplay:10.37,2013-03-17 16:29:00,
2013-03-17 11:34:00,15.8,3.6,30.32,ESE,112,4.6,4.6,58,0.00,CLR,,0.00,76.0,WeatherDisplay:10.37,2013-03-17 16:34:00,
2013-03-17 11:39:00,16.3,3.7,30.33,SSE,151,4.6,4.6,57,0.00,CLR,,0.00,237.0,WeatherDisplay:10.37,2013-03-17 16:39:00,
2013-03-17 11:44:00,17.0,4.0,30.33,ESE,115,2.0,2.0,56,0.00,CLR,,0.00,348.0,WeatherDisplay:10.37,2013-03-17 16:44:00,
2013-03-17 11:49:00,18.1,5.0,30.33,ESE,110,1.1,1.1,56,0.00,CLR,,0.00,684.0,WeatherDisplay:10.37,2013-03-17 16:49:00,
2013-03-17 11:54:00,19.2,4.8,30.32,South,169,4.0,4.0,53,0.00,CLR,,0.00,694.0,WeatherDisplay:10.37,2013-03-17 16:54:00,
2013-03-17 11:59:00,20.3,4.6,30.33,ESE,121,3.5,3.5,50,0.00,CLR,,0.00,703.0,WeatherDisplay:10.37,2013-03-17 16:59:00,
2013-03-17 12:04:00,21.1,4.4,30.33,SSE,156,4.6,4.6,48,0.00,CLR,,0.00,712.0,WeatherDisplay:10.37,2013-03-17 17:04:00,
2013-03-17 12:09:00,21.5,3.9,30.33,South,184,3.5,3.5,46,0.00,CLR,,0.00,715.0,WeatherDisplay:10.37,2013-03-17 17:09:00,
2013-03-17 12:14:00,21.5,3.4,30.32,East,91,6.0,6.0,45,0.00,CLR,,0.00,722.0,WeatherDisplay:10.37,2013-03-17 17:14:00,
2013-03-17 12:19:00,21.8,4.2,30.32,SSE,164,3.5,3.5,46,0.00,CLR,,0.00,729.0,WeatherDisplay:10.37,2013-03-17 17:19:00,
2013-03-17 12:24:00,22.6,5.8,30.32,East,80,3.5,3.5,48,0.00,CLR,,0.00,733.0,WeatherDisplay:10.37,2013-03-17 17:24:00,
2013-03-17 12:29:00,23.0,4.8,30.32,SSE,160,2.3,2.3,45,0.00,CLR,,0.00,738.0,WeatherDisplay:10.37,2013-03-17 17:29:00,
2013-03-17 12:34:00,23.4,5.6,30.31,East,101,5.0,5.0,46,0.00,CLR,,0.00,742.0,WeatherDisplay:10.37,2013-03-17 17:34:00,
2013-03-17 12:39:00,23.6,5.8,30.31,SSE,155,3.5,3.5,46,0.00,CLR,,0.00,747.0,WeatherDisplay:10.37,2013-03-17 17:39:00,
2013-03-17 12:44:00,23.6,4.8,30.31,West,263,2.3,2.3,44,0.00,CLR,,0.00,749.0,WeatherDisplay:10.37,2013-03-17 17:44:00,
2013-03-17 12:49:00,23.9,4.6,30.31,South,182,2.3,2.3,43,0.00,CLR,,0.00,751.0,WeatherDisplay:10.37,2013-03-17 17:49:00,
2013-03-17 12:54:00,23.8,5.5,30.30,SE,128,2.3,2.4,45,0.00,CLR,,0.00,756.0,WeatherDisplay:10.37,2013-03-17 17:54:00,
2013-03-17 12:59:00,23.9,4.6,30.30,SSW,199,5.8,5.8,43,0.00,CLR,,0.00,754.0,WeatherDisplay:10.37,2013-03-17 17:59:00,
2013-03-17 13:04:00,24.4,4.6,30.30,SSE,163,2.3,2.3,42,0.00,CLR,,0.00,756.0,WeatherDisplay:10.37,2013-03-17 18:04:00,
2013-03-17 13:09:00,24.6,6.7,30.30,East,93,3.5,3.5,46,0.00,CLR,,0.00,756.0,WeatherDisplay:10.37,2013-03-17 18:09:00,
2013-03-17 13:14:00,24.2,4.9,30.29,ESE,110,3.5,3.5,43,0.00,CLR,,0.00,756.0,WeatherDisplay:10.37,2013-03-17 18:14:00,
2013-03-17 13:19:00,24.0,4.7,30.29,NE,52,3.5,3.5,43,0.00,CLR,,0.00,752.0,WeatherDisplay:10.37,2013-03-17 18:19:00,
2013-03-17 13:24:00,23.5,4.8,30.28,ENE,76,5.8,5.8,44,0.00,CLR,,0.00,740.0,WeatherDisplay:10.37,2013-03-17 18:24:00,
2013-03-17 13:29:00,23.0,4.3,30.28,East,98,5.0,5.0,44,0.00,CLR,,0.00,155.0,WeatherDisplay:10.37,2013-03-17 18:29:00,
2013-03-17 13:34:00,22.8,4.6,30.27,SSW,209,4.6,4.6,45,0.00,CLR,,0.00,506.0,WeatherDisplay:10.37,2013-03-17 18:34:00,
2013-03-17 13:39:00,23.6,5.3,30.27,ESE,121,3.5,3.5,45,0.00,CLR,,0.00,752.0,WeatherDisplay:10.37,2013-03-17 18:39:00,
2013-03-17 13:44:00,24.4,5.6,30.27,East,98,4.6,4.6,44,0.00,CLR,,0.00,749.0,WeatherDisplay:10.37,2013-03-17 18:44:00,
2013-03-17 13:49:00,24.3,4.5,30.27,ENE,78,3.5,3.5,42,0.00,CLR,,0.00,751.0,WeatherDisplay:10.37,2013-03-17 18:49:00,
2013-03-17 13:54:00,24.9,4.5,30.27,ESE,112,3.5,3.5,41,0.00,CLR,,0.00,747.0,WeatherDisplay:10.37,2013-03-17 18:54:00,
2013-03-17 13:59:00,25.0,4.6,30.26,ESE,111,4.6,4.6,41,0.00,CLR,,0.00,731.0,WeatherDisplay:10.37,2013-03-17 18:59:00,
2013-03-17 14:04:00,25.2,5.3,30.26,East,82,4.6,4.6,42,0.00,CLR,,0.00,756.0,WeatherDisplay:10.37,2013-03-17 19:04:00,
2013-03-17 14:09:00,25.3,4.8,30.26,East,96,2.3,2.3,41,0.00,CLR,,0.00,759.0,WeatherDisplay:10.37,2013-03-17 19:09:00,
2013-03-17 14:14:00,25.7,4.1,30.26,ESE,115,4.6,4.6,39,0.00,CLR,,0.00,673.0,WeatherDisplay:10.37,2013-03-17 19:14:00,
2013-03-17 14:19:00,26.5,4.8,30.26,ENE,78,2.3,2.3,39,0.00,CLR,,0.00,707.0,WeatherDisplay:10.37,2013-03-17 19:19:00,
2013-03-17 14:24:00,26.9,5.2,30.25,East,96,3.5,3.5,39,0.00,CLR,,0.00,701.0,WeatherDisplay:10.37,2013-03-17 19:24:00,
2013-03-17 14:29:00,27.0,4.7,30.24,SSW,195,3.5,3.5,38,0.00,CLR,,0.00,668.0,WeatherDisplay:10.37,2013-03-17 19:29:00,
2013-03-17 14:34:00,27.4,4.5,30.23,East,80,4.6,4.6,37,0.00,CLR,,0.00,668.0,WeatherDisplay:10.37,2013-03-17 19:34:00,
2013-03-17 14:39:00,27.7,5.4,30.23,SE,145,3.5,3.5,38,0.00,CLR,,0.00,694.0,WeatherDisplay:10.37,2013-03-17 19:39:00,
2013-03-17 14:45:00,27.5,3.4,30.23,East,83,4.6,4.6,35,0.00,CLR,,0.00,719.0,WeatherDisplay:10.37,2013-03-17 19:45:00,
2013-03-17 14:50:00,27.2,3.1,30.23,WSW,237,10.4,10.4,35,0.00,CLR,,0.00,663.0,WeatherDisplay:10.37,2013-03-17 19:50:00,
2013-03-17 14:55:00,27.6,4.1,30.22,ESE,105,3.5,3.5,36,0.00,CLR,,0.00,687.0,WeatherDisplay:10.37,2013-03-17 19:55:00,
2013-03-17 15:00:00,27.9,3.1,30.22,SE,134,4.6,4.6,34,0.00,CLR,,0.00,668.0,WeatherDisplay:10.37,2013-03-17 20:00:00,
2013-03-17 15:05:00,28.3,3.5,30.22,ESE,105,3.5,3.5,34,0.00,OVC,,0.00,652.0,WeatherDisplay:10.37,2013-03-17 20:05:00,
2013-03-17 15:10:00,28.5,5.5,30.22,ESE,107,3.5,3.5,37,0.00,OVC,,0.00,657.0,WeatherDisplay:10.37,2013-03-17 20:10:00,
2013-03-17 15:15:00,28.4,4.2,30.21,ESE,111,4.6,4.6,35,0.00,OVC,,0.00,645.0,WeatherDisplay:10.37,2013-03-17 20:15:00,
2013-03-17 15:20:00,28.3,4.1,30.20,SSE,149,5.8,5.8,35,0.00,OVC,,0.00,631.0,WeatherDisplay:10.37,2013-03-17 20:20:00,
2013-03-17 15:25:00,28.5,3.6,30.20,East,85,6.9,6.9,34,0.00,OVC,,0.00,633.0,WeatherDisplay:10.37,2013-03-17 20:25:00,
2013-03-17 15:30:00,28.4,3.6,30.20,ESE,118,4.6,4.6,34,0.00,OVC,,0.00,624.0,WeatherDisplay:10.37,2013-03-17 20:30:00,
2013-03-17 15:35:00,28.7,3.8,30.20,East,86,6.9,6.9,34,0.00,OVC,,0.00,613.0,WeatherDisplay:10.37,2013-03-17 20:35:00,
2013-03-17 15:40:00,29.0,4.1,30.20,ESE,103,3.5,3.5,34,0.00,OVC,,0.00,603.0,WeatherDisplay:10.37,2013-03-17 20:40:00,
2013-03-17 15:45:00,28.8,3.9,30.19,East,92,8.1,8.1,34,0.00,OVC,,0.00,592.0,WeatherDisplay:10.37,2013-03-17 20:45:00,
2013-03-17 15:50:00,28.5,2.3,30.19,SE,144,3.5,4.1,32,0.00,OVC,,0.00,580.0,WeatherDisplay:10.37,2013-03-17 20:50:00,
2013-03-17 15:55:00,29.4,3.8,30.19,East,100,5.0,5.0,33,0.00,OVC,,0.00,571.0,WeatherDisplay:10.37,2013-03-17 20:55:00,
2013-03-17 16:00:00,29.1,2.2,30.18,SSE,155,4.6,4.6,31,0.00,OVC,,0.00,557.0,WeatherDisplay:10.37,2013-03-17 21:00:00,
2013-03-17 16:05:00,28.8,0.5,30.18,East,84,6.9,6.9,29,0.00,CLR,,0.00,541.0,WeatherDisplay:10.37,2013-03-17 21:05:00,
2013-03-17 16:10:00,28.8,3.9,30.18,East,89,3.5,3.5,34,0.00,CLR,,0.00,473.0,WeatherDisplay:10.37,2013-03-17 21:10:00,
2013-03-17 16:15:00,29.2,2.3,30.18,ESE,102,4.6,4.6,31,0.00,CLR,,0.00,455.0,WeatherDisplay:10.37,2013-03-17 21:15:00,
2013-03-17 16:20:00,29.6,1.9,30.17,SSE,154,6.9,6.9,30,0.00,CLR,,0.00,445.0,WeatherDisplay:10.37,2013-03-17 21:20:00,
2013-03-17 16:25:00,29.9,2.2,30.18,South,180,6.0,6.0,30,0.00,CLR,,0.00,399.0,WeatherDisplay:10.37,2013-03-17 21:25:00,
2013-03-17 16:30:00,29.7,2.7,30.17,SE,139,8.1,8.1,31,0.00,CLR,,0.00,396.0,WeatherDisplay:10.37,2013-03-17 21:30:00,
2013-03-17 16:35:00,29.6,2.6,30.17,East,83,3.5,3.5,31,0.00,CLR,,0.00,297.0,WeatherDisplay:10.37,2013-03-17 21:35:00,
2013-03-17 16:40:00,28.8,2.6,30.17,ESE,122,2.3,2.3,32,0.00,CLR,,0.00,255.0,WeatherDisplay:10.37,2013-03-17 21:40:00,
2013-03-17 16:45:00,28.7,1.1,30.16,SE,140,3.5,3.5,30,0.00,CLR,,0.00,316.0,WeatherDisplay:10.37,2013-03-17 21:45:00,
2013-03-17 16:50:00,28.5,1.6,30.16,ESE,115,4.6,4.6,31,0.00,CLR,,0.00,297.0,WeatherDisplay:10.37,2013-03-17 21:50:00,
2013-03-17 16:55:00,28.7,3.8,30.16,ESE,102,3.5,3.5,34,0.00,CLR,,0.00,251.0,WeatherDisplay:10.37,2013-03-17 21:55:00,
2013-03-17 17:00:00,28.7,3.2,30.16,SE,124,3.5,3.5,33,0.00,CLR,,0.00,250.0,WeatherDisplay:10.37,2013-03-17 22:00:00,
2013-03-17 17:05:00,28.9,2.7,30.16,ESE,107,4.6,4.6,32,0.00,OVC,,0.00,292.0,WeatherDisplay:10.37,2013-03-17 22:05:00,
2013-03-17 17:10:00,28.9,4.0,30.16,ESE,117,6.9,6.9,34,0.00,OVC,,0.00,221.0,WeatherDisplay:10.37,2013-03-17 22:10:00,
2013-03-17 17:15:00,28.4,2.9,30.16,SE,128,3.5,3.5,33,0.00,OVC,,0.00,236.0,WeatherDisplay:10.37,2013-03-17 22:15:00,
2013-03-17 17:20:00,28.1,3.9,30.16,ESE,109,6.9,6.9,35,0.00,OVC,,0.00,243.0,WeatherDisplay:10.37,2013-03-17 22:20:00,
2013-03-17 17:25:00,28.1,4.5,30.16,ESE,116,3.5,3.5,36,0.00,OVC,,0.00,234.0,WeatherDisplay:10.37,2013-03-17 22:25:00,
2013-03-17 17:30:00,28.3,4.1,30.15,East,92,4.6,4.6,35,0.00,OVC,,0.00,223.0,WeatherDisplay:10.37,2013-03-17 22:30:00,
2013-03-17 17:35:00,28.4,5.4,30.15,SE,143,4.0,4.0,37,0.00,OVC,,0.00,250.0,WeatherDisplay:10.37,2013-03-17 22:35:00,
2013-03-17 17:40:00,28.3,4.1,30.15,SE,139,3.5,3.5,35,0.00,OVC,,0.00,148.0,WeatherDisplay:10.37,2013-03-17 22:40:00,
2013-03-17 17:45:00,28.0,3.8,30.15,East,101,3.5,3.5,35,0.00,OVC,,0.00,58.0,WeatherDisplay:10.37,2013-03-17 22:45:00,
2013-03-17 17:50:00,27.6,4.1,30.15,ESE,107,6.9,6.9,36,0.00,OVC,,0.00,91.0,WeatherDisplay:10.37,2013-03-17 22:50:00,
2013-03-17 17:55:00,27.2,4.3,30.15,SSE,155,3.5,3.5,37,0.00,OVC,,0.00,46.0,WeatherDisplay:10.37,2013-03-17 22:55:00,
2013-03-17 18:00:00,26.7,4.5,30.14,East,95,3.5,3.5,38,0.00,OVC,,0.00,53.0,WeatherDisplay:10.37,2013-03-17 23:00:00,
2013-03-17 18:05:00,26.4,3.6,30.14,ESE,120,4.6,4.6,37,0.00,OVC,,0.00,53.0,WeatherDisplay:10.37,2013-03-17 23:05:00,
2013-03-17 18:10:00,26.2,4.0,30.14,ESE,107,3.5,3.5,38,0.00,OVC,,0.00,40.0,WeatherDisplay:10.37,2013-03-17 23:10:00,
2013-03-17 18:15:00,26.2,5.1,30.14,ESE,107,2.3,2.3,40,0.00,OVC,,0.00,37.0,WeatherDisplay:10.37,2013-03-17 23:15:00,
2013-03-17 18:20:00,26.1,4.5,30.14,East,90,4.6,4.6,39,0.00,OVC,,0.00,40.0,WeatherDisplay:10.37,2013-03-17 23:20:00,
2013-03-17 18:25:00,26.1,5.0,30.14,South,169,5.8,5.8,40,0.00,OVC,,0.00,40.0,WeatherDisplay:10.37,2013-03-17 23:25:00,
2013-03-17 18:30:00,26.1,4.5,30.14,SSE,150,2.3,2.3,39,0.00,OVC,,0.00,30.0,WeatherDisplay:10.37,2013-03-17 23:30:00,
2013-03-17 18:35:00,26.0,4.9,30.14,ESE,121,1.1,1.1,40,0.00,OVC,,0.00,28.0,WeatherDisplay:10.37,2013-03-17 23:35:00,
2013-03-17 18:40:00,25.9,4.9,30.14,SSE,163,2.3,2.3,40,0.00,OVC,,0.00,23.0,WeatherDisplay:10.37,2013-03-17 23:40:00,
2013-03-17 18:45:00,25.8,5.3,30.14,ESE,108,3.5,3.5,41,0.00,OVC,,0.00,18.0,WeatherDisplay:10.37,2013-03-17 23:45:00,
2013-03-17 18:50:00,25.7,5.2,30.14,SSE,150,2.3,2.3,41,0.00,OVC,,0.00,14.0,WeatherDisplay:10.37,2013-03-17 23:50:00,
2013-03-17 18:55:00,25.5,6.1,30.14,ESE,112,2.3,2.3,43,0.00,OVC,,0.00,11.0,WeatherDisplay:10.37,2013-03-17 23:55:00,
2013-03-17 19:00:00,25.3,4.8,30.14,SSE,165,3.5,3.5,41,0.00,OVC,,0.00,7.0,WeatherDisplay:10.37,2013-03-18 00:00:00,
2013-03-17 19:05:00,25.1,4.7,30.13,SSE,153,4.6,4.6,41,0.00,OVC,,0.00,5.0,WeatherDisplay:10.37,2013-03-18 00:05:00,
2013-03-17 19:10:00,24.8,5.4,30.14,South,174,0.0,1.2,43,0.00,OVC,,0.00,0.0,WeatherDisplay:10.37,2013-03-18 00:10:00,
2013-03-17 19:15:00,24.5,5.2,30.14,SE,125,1.1,1.1,43,0.00,OVC,,0.00,0.0,WeatherDisplay:10.37,2013-03-18 00:15:00,
2013-03-17 19:20:00,24.2,5.9,30.14,ESE,123,2.3,2.3,45,0.00,OVC,,0.00,0.0,WeatherDisplay:10.37,2013-03-18 00:20:00,
2013-03-17 19:25:00,24.0,4.7,30.14,SE,144,1.1,1.1,43,0.00,OVC,,0.00,0.0,WeatherDisplay:10.37,2013-03-18 00:25:00,
2013-03-17 19:30:00,23.8,4.5,30.14,SSE,152,3.5,3.5,43,0.00,OVC,,0.00,0.0,WeatherDisplay:10.37,2013-03-18 00:30:00,
2013-03-17 19:35:00,23.8,5.0,30.14,SSE,165,3.5,3.5,44,0.00,OVC,,0.00,0.0,WeatherDisplay:10.37,2013-03-18 00:35:00,
2013-03-17 19:41:00,23.9,5.6,30.14,South,173,3.5,3.5,45,0.00,OVC,,0.00,0.0,WeatherDisplay:10.37,2013-03-18 00:41:00,
2013-03-17 19:46:00,23.9,6.6,30.14,South,173,1.1,1.1,47,0.00,OVC,,0.00,0.0,WeatherDisplay:10.37,2013-03-18 00:46:00,
2013-03-17 19:51:00,23.8,6.0,30.14,SSE,157,1.1,1.1,46,0.00,OVC,,0.00,0.0,WeatherDisplay:10.37,2013-03-18 00:51:00,
2013-03-17 19:56:00,23.8,5.5,30.14,SSE,159,0.0,0.0,45,0.00,OVC,,0.00,0.0,WeatherDisplay:10.37,2013-03-18 00:56:00,
2013-03-17 20:01:00,23.8,6.0,30.14,South,169,3.5,3.5,46,0.00,OVC,,0.00,0.0,WeatherDisplay:10.37,2013-03-18 01:01:00,
2013-03-17 20:06:00,23.6,5.8,30.14,SE,127,2.3,2.3,46,0.00,OVC,,0.00,0.0,WeatherDisplay:10.37,2013-03-18 01:06:00,
2013-03-17 20:11:00,23.6,5.8,30.14,WSW,251,3.5,3.5,46,0.00,OVC,,0.00,0.0,WeatherDisplay:10.37,2013-03-18 01:11:00,
2013-03-17 20:16:00,23.5,5.2,30.14,SSE,165,2.3,2.3,45,0.00,OVC,,0.00,0.0,WeatherDisplay:10.37,2013-03-18 01:16:00,
2013-03-17 20:21:00,23.3,5.5,30.14,South,174,2.3,2.3,46,0.00,OVC,,0.00,0.0,WeatherDisplay:10.37,2013-03-18 01:21:00,
2013-03-17 20:26:00,23.2,5.9,30.13,SSE,160,3.5,3.5,47,0.00,OVC,,0.00,0.0,WeatherDisplay:10.37,2013-03-18 01:26:00,
2013-03-17 20:31:00,23.2,5.9,30.13,SSW,196,2.3,0.0,47,0.00,OVC,,0.00,0.0,WeatherDisplay:10.37,2013-03-18 01:31:00,
2013-03-17 20:36:00,23.1,6.7,30.13,SE,134,3.5,3.5,49,0.00,OVC,,0.00,0.0,WeatherDisplay:10.37,2013-03-18 01:36:00,
2013-03-17 20:41:00,22.9,6.6,30.12,South,171,3.5,0.0,49,0.00,OVC,,0.00,0.0,WeatherDisplay:10.37,2013-03-18 01:41:00,
2013-03-17 20:46:00,22.8,6.9,30.13,SE,139,2.3,2.3,50,0.00,OVC,,0.00,0.0,WeatherDisplay:10.37,2013-03-18 01:46:00,
2013-03-17 20:51:00,22.7,6.8,30.12,SSE,165,3.5,3.5,50,0.00,OVC,,0.00,0.0,WeatherDisplay:10.37,2013-03-18 01:51:00,
2013-03-17 20:56:00,22.6,7.2,30.12,South,177,2.3,2.3,51,0.00,OVC,,0.00,0.0,WeatherDisplay:10.37,2013-03-18 01:56:00,
2013-03-17 21:01:00,22.6,7.2,30.12,SSW,196,4.6,4.6,51,0.00,BKN,,0.00,0.0,WeatherDisplay:10.37,2013-03-18 02:01:00,
2013-03-17 21:07:00,22.6,7.2,30.11,SE,126,2.3,0.0,51,0.00,BKN,,0.00,0.0,WeatherDisplay:10.37,2013-03-18 02:07:00,
2013-03-17 21:12:00,22.5,7.5,30.11,SSE,150,2.3,2.3,52,0.00,BKN,,0.00,0.0,WeatherDisplay:10.37,2013-03-18 02:12:00,
2013-03-17 21:17:00,22.4,7.8,30.11,ESE,122,3.5,3.5,53,0.00,BKN,,0.00,0.0,WeatherDisplay:10.37,2013-03-18 02:17:00,
2013-03-17 21:22:00,22.3,8.2,30.11,East,81,3.5,3.5,54,0.00,BKN,,0.00,0.0,WeatherDisplay:10.37,2013-03-18 02:22:00,
2013-03-17 21:27:00,22.2,8.5,30.11,SSE,159,1.1,1.1,55,0.00,BKN,,0.00,0.0,WeatherDisplay:10.37,2013-03-18 02:27:00,
2013-03-17 21:32:00,22.1,8.4,30.10,SE,128,4.6,4.6,55,0.00,BKN,,0.00,0.0,WeatherDisplay:10.37,2013-03-18 02:32:00,
2013-03-17 21:37:00,22.1,8.8,30.10,SSE,156,3.5,3.5,56,0.00,BKN,,0.00,0.0,WeatherDisplay:10.37,2013-03-18 02:37:00,
2013-03-17 21:42:00,22.1,8.8,30.10,SE,143,3.5,3.5,56,0.00,BKN,,0.00,0.0,WeatherDisplay:10.37,2013-03-18 02:42:00,
2013-03-17 21:47:00,22.1,9.2,30.10,SSE,150,5.0,5.0,57,0.00,BKN,,0.00,0.0,WeatherDisplay:10.37,2013-03-18 02:47:00,
2013-03-17 21:52:00,22.2,9.3,30.09,SE,124,3.5,3.5,57,0.00,BKN,,0.00,0.0,WeatherDisplay:10.37,2013-03-18 02:52:00,
2013-03-17 21:57:00,22.2,9.7,30.09,ESE,113,2.3,0.0,58,0.00,BKN,,0.00,0.0,WeatherDisplay:10.37,2013-03-18 02:57:00,
2013-03-17 22:02:00,22.2,9.7,30.09,ESE,111,5.0,5.0,58,0.00,BKN,,0.00,0.0,WeatherDisplay:10.37,2013-03-18 03:02:00,
2013-03-17 22:07:00,22.2,10.0,30.08,ESE,107,6.9,6.9,59,0.00,BKN,,0.00,0.0,WeatherDisplay:10.37,2013-03-18 03:07:00,
2013-03-17 22:12:00,22.1,9.9,30.09,ESE,118,3.5,3.5,59,0.00,BKN,,0.00,0.0,WeatherDisplay:10.37,2013-03-18 03:12:00,
2013-03-17 22:17:00,21.9,9.7,30.09,SSE,153,3.5,3.5,59,0.00,BKN,,0.00,0.0,WeatherDisplay:10.37,2013-03-18 03:17:00,
2013-03-17 22:22:00,21.8,9.7,30.08,SE,142,4.6,4.6,59,0.00,BKN,,0.00,0.0,WeatherDisplay:10.37,2013-03-18 03:22:00,
2013-03-17 22:27:00,21.7,10.3,30.08,South,171,2.3,2.3,61,0.00,BKN,,0.00,0.0,WeatherDisplay:10.37,2013-03-18 03:27:00,
2013-03-17 22:32:00,21.5,10.1,30.08,SE,139,3.5,3.5,61,0.00,BKN,,0.00,0.0,WeatherDisplay:10.37,2013-03-18 03:32:00,
2013-03-17 22:37:00,21.3,10.3,30.08,ESE,119,3.5,3.5,62,0.00,BKN,,0.00,0.0,WeatherDisplay:10.37,2013-03-18 03:37:00,
2013-03-17 22:42:00,21.2,10.2,30.08,ESE,116,4.6,4.6,62,0.00,BKN,,0.00,0.0,WeatherDisplay:10.37,2013-03-18 03:42:00,
2013-03-17 22:47:00,21.1,10.5,30.08,ESE,109,4.6,4.6,63,0.00,BKN,,0.00,0.0,WeatherDisplay:10.37,2013-03-18 03:47:00,
2013-03-17 22:52:00,21.1,10.8,30.08,SSE,148,4.6,4.6,64,0.00,BKN,,0.00,0.0,WeatherDisplay:10.37,2013-03-18 03:52:00,
2013-03-17 22:57:00,21.2,10.9,30.08,East,79,3.5,3.5,64,0.00,BKN,,0.00,0.0,WeatherDisplay:10.37,2013-03-18 03:57:00,
2013-03-17 23:00:00,21.2,10.9,30.08,SE,146,6.9,6.9,64,0.00,BKN,,0.00,0.0,WeatherDisplay:10.37,2013-03-18 04:00:00,
2013-03-17 23:05:00,21.3,11.4,30.07,SE,128,5.8,5.8,65,0.00,OVC,,0.00,0.0,WeatherDisplay:10.37,2013-03-18 04:05:00,
2013-03-17 23:10:00,21.3,11.7,30.07,SE,132,8.1,8.1,66,0.00,OVC,,0.00,0.0,WeatherDisplay:10.37,2013-03-18 04:10:00,
2013-03-17 23:15:00,21.3,11.7,30.06,South,182,3.0,3.0,66,0.00,OVC,,0.00,0.0,WeatherDisplay:10.37,2013-03-18 04:15:00,
2013-03-17 23:20:00,21.3,11.7,30.06,ESE,111,3.5,3.5,66,0.00,OVC,,0.00,0.0,WeatherDisplay:10.37,2013-03-18 04:20:00,
2013-03-17 23:25:00,21.4,12.1,30.06,SE,132,5.8,5.8,67,0.00,OVC,,0.00,0.0,WeatherDisplay:10.37,2013-03-18 04:25:00,
2013-03-17 23:30:00,21.4,12.1,30.06,SSW,194,2.3,2.3,67,0.00,OVC,,0.00,0.0,WeatherDisplay:10.37,2013-03-18 04:30:00,
2013-03-17 23:35:00,21.4,12.1,30.06,ESE,115,4.6,4.6,67,0.00,OVC,,0.00,0.0,WeatherDisplay:10.37,2013-03-18 04:35:00,
2013-03-17 23:40:00,21.3,12.0,30.06,ESE,105,11.5,11.5,67,0.00,OVC,,0.00,0.0,WeatherDisplay:10.37,2013-03-18 04:40:00,
2013-03-17 23:45:00,21.3,12.7,30.05,ESE,119,2.3,2.3,69,0.00,OVC,,0.00,0.0,WeatherDisplay:10.37,2013-03-18 04:45:00,
2013-03-17 23:50:00,21.2,12.3,30.05,SSE,155,6.9,6.9,68,0.00,OVC,,0.00,0.0,WeatherDisplay:10.37,2013-03-18 04:50:00,
2013-03-17 23:55:00,21.1,12.5,30.05,SE,134,4.6,4.6,69,0.00,OVC,,0.00,0.0,WeatherDisplay:10.37,2013-03-18 04:55:00,